Flag for U.S.A. Weather past 2 weeks in Anderson, South Carolina, U.S.A.

Now
72 °F

Clear.


Feels Like: 70 °F
Forecast: 70 / 91 °F
Wind: No wind

Location: Anderson County Airport

Current Time: Sep 2, 2015 at 12:29:22 AM

Latest Report: Sep 1, 2015 at 11:56 PM


Visibility: 10 mi

Pressure: 30.09 "Hg

Humidity: 87%

Dew point: 68 °F

Location of AndersonLocation

Historic Weather in Anderson — Graph

°F

Anderson temperature yesterday

Maximum temperature yesterday: 88 °F (at 4:56 PM)
Minimum temperature yesterday: 65 °F (at 5:56 AM)
Average temperature yesterday: 76 °F

Past Weeks' High & Low Weather Summary

 TemperatureHumidityPressure
High89 °F (Aug 24, 3:56 PM)100% (Aug 24, 7:56 AM)30.21 "Hg (Aug 24, 7:56 AM)
Low63 °F (Aug 31, 5:56 AM)46% (Aug 25, 3:56 PM)29.85 "Hg (Aug 25, 4:56 PM)
Average76 °F75%30.02 "Hg
* Reported Aug 17 10:56 PM — Sep 1 10:56 PM, Anderson, Weather by CustomWeather, © 2015

Note: Actual official high and low records may vary slightly from our data, if they occured in-between our weather recording intervals... More about our weather records

Advertising

Anderson weather history for previous 24 hours

 ConditionsComfort  
Time TempWeatherWind HumidityBarometerVisibility
10:56 PM
Tue, Sep 1
73 °FClear.No wind88%30.08 "Hg10 mi
9:56 PM74 °FClear.No wind85%30.07 "Hg10 mi
8:56 PM78 °FSunny.No wind69%30.06 "Hg10 mi
7:56 PM81 °FSunny.No wind62%30.06 "Hg10 mi
6:56 PM86 °FSunny.7 mph51%30.06 "Hg10 mi
4:56 PM88 °FSunny.5 mph50%30.05 "Hg10 mi
3:56 PM87 °FScattered clouds.3 mph50%30.06 "Hg10 mi
2:56 PM86 °FBroken clouds.8 mph53%30.08 "Hg10 mi
1:56 PM85 °FBroken clouds.7 mph53%30.09 "Hg10 mi
12:56 PM84 °FScattered clouds.3 mph57%30.09 "Hg10 mi
11:56 AM83 °FSunny.No wind57%30.11 "Hg10 mi
10:56 AM82 °FSunny.3 mph65%30.13 "Hg10 mi
9:56 AM79 °FSunny.3 mph72%30.13 "Hg10 mi
8:56 AM73 °FSunny.No wind90%30.13 "Hg10 mi
7:56 AM68 °FPassing clouds.No wind90%30.11 "Hg10 mi
6:56 AM66 °FPassing clouds.No wind93%30.09 "Hg10 mi
5:56 AM65 °FPassing clouds.No wind94%30.08 "Hg10 mi
4:56 AM67 °FClear.No wind90%30.07 "Hg10 mi
3:56 AM68 °FClear.No wind93%30.06 "Hg10 mi
2:56 AM67 °FClear.No wind93%30.08 "Hg10 mi
1:56 AM68 °FClear.No wind93%30.08 "Hg10 mi
12:56 AM70 °FClear.No wind90%30.09 "Hg10 mi
Weather by CustomWeather, © 2015

See weather overviewHow to use our weather pages